TAM5541 SBCT-SBRJ

Flight info

Callsign TAM5541
Flight time N/A
Altitude 37000
Route EDVEB UM548 KOXAG UM400 KOLBI
Aircraft A319/M-SDE3FGHIRWY/LB1

Departure

Time N/A
Airport Curitiba-Afonso Pena International Airport (SBCT)

Arrival

Time 2026-04-28 03:30
Airport Santos Dumont Airport (SBRJ)
Time Latitude Longitude Altitude Speed Heading
2026-04-28 03:06 -24.07774 -44.63455 35062 ft 493 kts 59°
2026-04-28 03:06 -24.06264 -44.60105 34477 ft 492 kts 59°
2026-04-28 03:06 -24.04754 -44.56742 33901 ft 490 kts 59°
2026-04-28 03:06 -24.03257 -44.53413 33260 ft 485 kts 59°
2026-04-28 03:07 -24.01774 -44.50122 32402 ft 480 kts 59°
2026-04-28 03:07 -24.00305 -44.46878 31584 ft 474 kts 58°
2026-04-28 03:07 -23.98847 -44.43673 30902 ft 465 kts 58°
2026-04-28 03:07 -23.97448 -44.40597 30466 ft 450 kts 58°
2026-04-28 03:08 -23.96074 -44.37567 30028 ft 441 kts 58°
2026-04-28 03:08 -23.94688 -44.34530 29533 ft 439 kts 58°
2026-04-28 03:08 -23.93342 -44.31595 29099 ft 436 kts 58°
2026-04-28 03:08 -23.91986 -44.28642 28677 ft 433 kts 58°
2026-04-28 03:09 -23.90638 -44.25701 28262 ft 430 kts 58°
2026-04-28 03:09 -23.89301 -44.22777 27819 ft 429 kts 58°
2026-04-28 03:09 -23.87986 -44.19848 27262 ft 430 kts 59°
2026-04-28 03:09 -23.86686 -44.16905 26728 ft 431 kts 59°
2026-04-28 03:10 -23.85391 -44.13958 26201 ft 431 kts 59°
2026-04-28 03:10 -23.84090 -44.11005 25665 ft 431 kts 59°
2026-04-28 03:10 -23.82646 -44.08143 25136 ft 424 kts 48°
2026-04-28 03:10 -23.80662 -44.05845 24627 ft 411 kts 32°
2026-04-28 03:11 -23.78268 -44.04250 24127 ft 397 kts 17°
2026-04-28 03:11 -23.75675 -44.03408 23651 ft 384 kts
2026-04-28 03:11 -23.73056 -44.03174 23191 ft 376 kts 357°
2026-04-28 03:11 -23.70447 -44.03012 22724 ft 373 kts 357°
2026-04-28 03:12 -23.67868 -44.02849 22267 ft 369 kts 358°
2026-04-28 03:12 -23.65315 -44.02687 21814 ft 366 kts 358°
2026-04-28 03:12 -23.62817 -44.02528 21372 ft 362 kts 358°
2026-04-28 03:12 -23.60282 -44.02366 20937 ft 358 kts 358°
2026-04-28 03:13 -23.57845 -44.02210 20496 ft 354 kts 358°
2026-04-28 03:13 -23.55405 -44.02053 20059 ft 350 kts 359°
2026-04-28 03:13 -23.52990 -44.01897 19638 ft 346 kts 359°
2026-04-28 03:13 -23.50603 -44.01741 19221 ft 342 kts 359°
2026-04-28 03:14 -23.48243 -44.01588 18809 ft 337 kts 359°
2026-04-28 03:14 -23.45916 -44.01439 18405 ft 333 kts 359°
2026-04-28 03:14 -23.43613 -44.01294 17993 ft 329 kts 359°
2026-04-28 03:14 -23.41337 -44.01153 17603 ft 326 kts 359°
2026-04-28 03:15 -23.39076 -44.01010 17209 ft 323 kts 359°
2026-04-28 03:15 -23.36846 -44.00868 16823 ft 320 kts 359°
2026-04-28 03:15 -23.34636 -44.00729 16437 ft 317 kts 360°
2026-04-28 03:15 -23.32437 -44.00590 16054 ft 315 kts 360°
2026-04-28 03:16 -23.30251 -44.00451 15671 ft 313 kts 360°
2026-04-28 03:16 -23.28085 -44.00313 15293 ft 312 kts
2026-04-28 03:16 -23.25909 -44.00173 14915 ft 311 kts
2026-04-28 03:16 -23.23756 -44.00036 14539 ft 310 kts
2026-04-28 03:17 -23.21610 -43.99900 14162 ft 309 kts
2026-04-28 03:17 -23.18065 -43.99450 13538 ft 310 kts 15°
2026-04-28 03:17 -23.16152 -43.98366 13161 ft 313 kts 35°
2026-04-28 03:18 -23.14670 -43.96622 12763 ft 316 kts 56°
2026-04-28 03:18 -23.13688 -43.94477 12391 ft 317 kts 64°
2026-04-28 03:18 -23.12768 -43.92302 12009 ft 316 kts 63°
2026-04-28 03:18 -23.11848 -43.90144 11621 ft 314 kts 63°
2026-04-28 03:19 -23.10926 -43.87996 11244 ft 313 kts 63°
2026-04-28 03:19 -23.10008 -43.85862 10866 ft 311 kts 63°
2026-04-28 03:19 -23.09096 -43.83742 10491 ft 309 kts 64°
2026-04-28 03:19 -23.08190 -43.81633 10115 ft 308 kts 64°
2026-04-28 03:20 -23.07289 -43.79533 9749 ft 306 kts 64°
2026-04-28 03:20 -23.06399 -43.77449 9391 ft 304 kts 64°
2026-04-28 03:20 -23.05511 -43.75375 9016 ft 302 kts 64°
2026-04-28 03:20 -23.04626 -43.73314 8661 ft 300 kts 64°
2026-04-28 03:21 -23.03742 -43.71261 8278 ft 298 kts 64°
2026-04-28 03:21 -23.02878 -43.69251 7924 ft 296 kts 64°
2026-04-28 03:21 -23.02007 -43.67247 7667 ft 291 kts 64°
2026-04-28 03:21 -23.01142 -43.65269 7402 ft 289 kts 64°
2026-04-28 03:22 -23.00277 -43.63299 7131 ft 288 kts 64°
2026-04-28 03:22 -22.99416 -43.61340 6923 ft 287 kts 64°
2026-04-28 03:22 -22.98557 -43.59385 6720 ft 287 kts 64°
2026-04-28 03:22 -22.97700 -43.57438 6545 ft 284 kts 64°
2026-04-28 03:23 -22.96850 -43.55507 6365 ft 283 kts 64°
2026-04-28 03:23 -22.96000 -43.53578 6204 ft 284 kts 64°
2026-04-28 03:23 -22.95156 -43.51658 6030 ft 282 kts 64°
2026-04-28 03:23 -22.94317 -43.49743 5775 ft 282 kts 65°
2026-04-28 03:24 -22.93490 -43.47811 5446 ft 280 kts 65°
2026-04-28 03:24 -22.92682 -43.45898 5126 ft 277 kts 65°
2026-04-28 03:24 -22.91885 -43.44011 4821 ft 274 kts 65°
2026-04-28 03:24 -22.91103 -43.42150 4514 ft 269 kts 65°
2026-04-28 03:25 -22.90342 -43.40340 4230 ft 258 kts 65°
2026-04-28 03:25 -22.89611 -43.38612 3954 ft 246 kts 65°
2026-04-28 03:25 -22.88911 -43.36963 3691 ft 234 kts 65°
2026-04-28 03:25 -22.88261 -43.35382 3447 ft 226 kts 71°
2026-04-28 03:26 -22.87837 -43.33772 3199 ft 220 kts 75°
2026-04-28 03:26 -22.87434 -43.32196 2957 ft 214 kts 75°
2026-04-28 03:26 -22.87042 -43.30667 2776 ft 206 kts 75°
2026-04-28 03:26 -22.86744 -43.29183 2522 ft 196 kts 86°
2026-04-28 03:27 -22.86745 -43.27654 2347 ft 220 kts 91°
2026-04-28 03:27 -22.86757 -43.26029 2152 ft 206 kts 91°
2026-04-28 03:27 -22.86763 -43.24570 1908 ft 185 kts 91°
2026-04-28 03:27 -22.86767 -43.23283 1713 ft 157 kts 91°
2026-04-28 03:28 -22.86770 -43.22173 1514 ft 139 kts 92°
2026-04-28 03:28 -22.86772 -43.21156 1339 ft 133 kts 94°
2026-04-28 03:28 -22.86778 -43.20159 1160 ft 133 kts 95°
2026-04-28 03:28 -22.86782 -43.19160 1000 ft 132 kts 95°
2026-04-28 03:29 -22.86843 -43.18169 815 ft 130 kts 109°
2026-04-28 03:29 -22.87238 -43.17309 668 ft 127 kts 131°
2026-04-28 03:29 -22.87904 -43.16700 506 ft 124 kts 153°
2026-04-28 03:29 -22.88723 -43.16431 354 ft 124 kts 175°
2026-04-28 03:30 -22.89582 -43.16382 217 ft 123 kts 176°
2026-04-28 03:30 -22.90444 -43.16321 57 ft 124 kts 178°
2026-04-28 03:30 -22.91167 -43.16276 21 ft 81 kts 176°
2026-04-28 03:30 -22.91528 -43.16250 22 ft 36 kts 176°
2026-04-28 03:31 -22.91574 -43.16326 21 ft 16 kts 316°
2026-04-28 03:31 -22.91490 -43.16413 22 ft 18 kts 316°
2026-04-28 03:31 -22.91391 -43.16501 24 ft 19 kts 341°
2026-04-28 03:31 -22.91264 -43.16512 22 ft 15 kts 354°
2026-04-28 03:32 -22.91245 -43.16573 22 ft 10 kts 268°
2026-04-28 03:32 -22.91246 -43.16584 22 ft 0 kts 266°